Location: Rioux
(40.7500°S, 175.7500°E)
Time: 10:03:47
(UTC+00:00)

SL-8 R/B - Pass Details

Date: 12 June 2024
Orbit: 651 x 662 km, 48.4° (Epoch: 20 July)

Event Time Altitude Azimuth Distance (km) Brightness Sun altitude
Exits shadow 19:00:14 - 246° (WSW) 2,193 5.7 -7.3°
Reaches altitude 10° 19:00:29 10° 246° (WSW) 2,104 5.6 -7.3°
Maximum altitude 19:05:13 55° 323° (NW) 809 4.1 -6.4°
Drops below altitude 10° 19:09:55 10° 40° (NE) 2,084 7.5 -5.6°
Sets 19:12:18 0° 44° (NE) 2,990 8.7 -5.2°
